When you browse on this site, cookies collect data to enhance your experience and personalize the content and advertising you see.
Visit our Privacy Policy to learn more. By continuing to use the site, you agree to this use of cookies and data.
  • en Suisse
  • Liste des pays
  • À 7 jours
  • Température de l'eau
  • Carte météo
  • Widgets météo
  • user-avatar
    Se connecter

    Météo par heure à Ajaccio

    Ce jour, 20 Novembre, Mercredi

    Heure Température Précipitation Vent Pression Humidité
    00:00 +12°C° 0.1 mm 2 m/s 746 mmHg 87%
    01:00 +11°C° 0.1 mm 3 m/s 746 mmHg 87%
    02:00 +11°C° 0.1 mm 3 m/s 746 mmHg 87%
    03:00 +11°C° 0.1 mm 3 m/s 746 mmHg 87%
    04:00 +11°C° 0.1 mm 3 m/s 745 mmHg 86%
    05:00 +11°C° 0.1 mm 3 m/s 745 mmHg 87%
    06:00 +11°C° 0.1 mm 3 m/s 745 mmHg 87%
    07:00 +10°C° 0.1 mm 3 m/s 745 mmHg 88%
    08:00 +11°C° 0 mm 3 m/s 746 mmHg 86%
    09:00 +11°C° 0 mm 3 m/s 746 mmHg 84%
    10:00 +12°C° 0 mm 3 m/s 746 mmHg 82%
    11:00 +13°C° 0 mm 2 m/s 746 mmHg 80%
    12:00 +13°C° 0 mm 2 m/s 746 mmHg 78%
    13:00 +13°C° 0 mm 2 m/s 746 mmHg 76%
    14:00 +13°C° 0 mm 2 m/s 746 mmHg 75%
    15:00 +13°C° 0 mm 2 m/s 746 mmHg 75%
    16:00 +13°C° 0 mm 2 m/s 746 mmHg 75%
    17:00 +12°C° 0 mm 2 m/s 746 mmHg 77%
    18:00 +10°C° 0 mm 2 m/s 746 mmHg 79%
    19:00 +10°C° 0 mm 1 m/s 746 mmHg 81%
    20:00 +9°C° 0 mm 2 m/s 746 mmHg 79%
    21:00 +9°C° 0 mm 2 m/s 746 mmHg 77%
    22:00 +9°C° 0 mm 3 m/s 746 mmHg 75%
    23:00 +9°C° 0 mm 3 m/s 746 mmHg 74%

    Demain, 21 Novembre, Jeudi

    Heure Température Précipitation Vent Pression Humidité
    00:00 +9°C° 0 mm 3 m/s 746 mmHg 74%
    01:00 +10°C° 0 mm 3 m/s 746 mmHg 73%
    02:00 +10°C° 0.1 mm 3 m/s 745 mmHg 75%
    03:00 +10°C° 0.1 mm 3 m/s 745 mmHg 77%
    04:00 +10°C° 0.1 mm 3 m/s 745 mmHg 79%
    05:00 +10°C° 0.3 mm 3 m/s 745 mmHg 79%
    06:00 +10°C° 0.3 mm 3 m/s 745 mmHg 80%
    07:00 +10°C° 0.3 mm 3 m/s 745 mmHg 81%
    08:00 +11°C° 0.4 mm 3 m/s 745 mmHg 80%
    09:00 +11°C° 0.4 mm 3 m/s 745 mmHg 79%
    10:00 +12°C° 0.4 mm 3 m/s 745 mmHg 77%
    11:00 +13°C° 0.2 mm 3 m/s 745 mmHg 74%
    12:00 +14°C° 0.2 mm 3 m/s 744 mmHg 71%
    13:00 +14°C° 0.2 mm 3 m/s 744 mmHg 67%
    14:00 +14°C° 0.2 mm 3 m/s 744 mmHg 69%
    15:00 +15°C° 0.2 mm 2 m/s 744 mmHg 71%
    16:00 +14°C° 0.2 mm 2 m/s 744 mmHg 73%
    17:00 +12°C° 0.2 mm 3 m/s 744 mmHg 73%
    18:00 +12°C° 0.2 mm 3 m/s 744 mmHg 73%
    19:00 +11°C° 0.2 mm 3 m/s 744 mmHg 74%
    20:00 +11°C° 0.3 mm 3 m/s 744 mmHg 74%
    21:00 +11°C° 0.3 mm 3 m/s 744 mmHg 74%
    22:00 +12°C° 0.3 mm 3 m/s 745 mmHg 75%
    23:00 +11°C° 0.9 mm 3 m/s 745 mmHg 78%

    Après-demain, 22 Novembre, Vendredi

    Heure Température Précipitation Vent Pression Humidité
    00:00 +11°C° 0.9 mm 3 m/s 745 mmHg 81%
    01:00 +11°C° 0.9 mm 3 m/s 745 mmHg 84%
    02:00 +11°C° 0.5 mm 3 m/s 744 mmHg 86%
    03:00 +11°C° 0.5 mm 3 m/s 744 mmHg 87%
    04:00 +12°C° 0.5 mm 2 m/s 744 mmHg 88%
    05:00 +12°C° 0.4 mm 2 m/s 744 mmHg 88%
    06:00 +10°C° 0.4 mm 2 m/s 744 mmHg 88%
    07:00 +10°C° 0.4 mm 2 m/s 744 mmHg 88%
    08:00 +12°C° 0.1 mm 2 m/s 745 mmHg 85%
    09:00 +13°C° 0.1 mm 2 m/s 745 mmHg 82%
    10:00 +14°C° 0.1 mm 2 m/s 745 mmHg 79%
    11:00 +14°C° 0.1 mm 3 m/s 745 mmHg 75%
    12:00 +14°C° 0.1 mm 3 m/s 745 mmHg 71%
    13:00 +16°C° 0.1 mm 3 m/s 745 mmHg 68%
    14:00 +16°C° 0.2 mm 3 m/s 744 mmHg 72%
    15:00 +14°C° 0.2 mm 4 m/s 744 mmHg 76%
    16:00 +14°C° 0.2 mm 4 m/s 744 mmHg 80%
    17:00 +13°C° 0.4 mm 4 m/s 744 mmHg 82%
    18:00 +12°C° 0.4 mm 4 m/s 744 mmHg 85%
    19:00 +12°C° 0.4 mm 4 m/s 743 mmHg 87%
    20:00 +12°C° 0.1 mm 5 m/s 743 mmHg 86%
    21:00 +12°C° 0.1 mm 5 m/s 743 mmHg 84%
    22:00 +12°C° 0.1 mm 5 m/s 743 mmHg 83%
    23:00 +12°C° 0 mm 5 m/s 743 mmHg 81%

    23 Novembre, Samedi

    Heure Température Précipitation Vent Pression Humidité
    00:00 +13°C° 0 mm 5 m/s 742 mmHg 80%
    01:00 +13°C° 0 mm 5 m/s 742 mmHg 78%
    02:00 +13°C° 0 mm 6 m/s 741 mmHg 77%
    03:00 +13°C° 0 mm 6 m/s 741 mmHg 75%
    04:00 +13°C° 0 mm 6 m/s 740 mmHg 73%
    05:00 +12°C° 0 mm 7 m/s 740 mmHg 74%
    06:00 +12°C° 0 mm 7 m/s 740 mmHg 74%
    07:00 +12°C° 0 mm 7 m/s 739 mmHg 75%
    08:00 +13°C° 0.1 mm 8 m/s 739 mmHg 74%
    09:00 +15°C° 0.1 mm 8 m/s 739 mmHg 73%
    10:00 +15°C° 0.1 mm 8 m/s 739 mmHg 72%
    11:00 +16°C° 0.1 mm 8 m/s 739 mmHg 69%
    12:00 +16°C° 0.1 mm 8 m/s 738 mmHg 67%
    13:00 +16°C° 0.1 mm 7 m/s 738 mmHg 65%
    14:00 +15°C° 0.2 mm 7 m/s 738 mmHg 68%
    15:00 +15°C° 0.2 mm 7 m/s 737 mmHg 70%
    16:00 +14°C° 0.2 mm 7 m/s 737 mmHg 73%
    17:00 +14°C° 0.2 mm 7 m/s 737 mmHg 75%
    18:00 +13°C° 0.2 mm 6 m/s 737 mmHg 78%
    19:00 +13°C° 0.2 mm 6 m/s 737 mmHg 80%
    20:00 +13°C° 0.3 mm 5 m/s 738 mmHg 81%
    21:00 +13°C° 0.3 mm 5 m/s 738 mmHg 83%
    22:00 +13°C° 0.3 mm 5 m/s 738 mmHg 84%
    23:00 +13°C° 0.9 mm 4 m/s 738 mmHg 86%

    24 Novembre, Dimanche

    Heure Température Précipitation Vent Pression Humidité
    00:00 +13°C° 0.9 mm 4 m/s 738 mmHg 88%
    01:00 +13°C° 0.9 mm 3 m/s 738 mmHg 89%
    02:00 +13°C° 2.2 mm 3 m/s 738 mmHg 90%
    03:00 +13°C° 2.2 mm 3 m/s 738 mmHg 90%
    04:00 +14°C° 2.2 mm 2 m/s 738 mmHg 91%
    05:00 +14°C° 1.3 mm 2 m/s 738 mmHg 92%
    06:00 +13°C° 1.3 mm 3 m/s 738 mmHg 93%
    07:00 +13°C° 1.3 mm 3 m/s 739 mmHg 93%
    08:00 +14°C° 0.8 mm 2 m/s 739 mmHg 92%
    09:00 +14°C° 0.8 mm 2 m/s 740 mmHg 91%
    10:00 +15°C° 0.8 mm 2 m/s 740 mmHg 89%
    11:00 +14°C° 1 mm 3 m/s 740 mmHg 89%
    12:00 +14°C° 1 mm 3 m/s 741 mmHg 89%
    13:00 +14°C° 1 mm 3 m/s 741 mmHg 89%
    14:00 +14°C° 0.4 mm 3 m/s 741 mmHg 86%
    15:00 +14°C° 0.4 mm 3 m/s 741 mmHg 83%
    16:00 +15°C° 0.4 mm 2 m/s 742 mmHg 80%
    17:00 +15°C° 0 mm 2 m/s 742 mmHg 80%
    18:00 +13°C° 0 mm 3 m/s 742 mmHg 80%
    19:00 +12°C° 0 mm 3 m/s 743 mmHg 79%
    20:00 +12°C° 0 mm 3 m/s 743 mmHg 79%
    21:00 +12°C° 0 mm 3 m/s 743 mmHg 79%
    22:00 +12°C° 0 mm 3 m/s 744 mmHg 79%
    23:00 +13°C° 0 mm 3 m/s 744 mmHg 80%

    25 Novembre, Lundi

    Heure Température Précipitation Vent Pression Humidité
    00:00 +13°C° 0 mm 3 m/s 744 mmHg 81%
    01:00 +13°C° 0 mm 3 m/s 744 mmHg 82%
    02:00 +13°C° 0 mm 3 m/s 744 mmHg 81%
    03:00 +14°C° 0 mm 2 m/s 744 mmHg 80%
    04:00 +14°C° 0 mm 2 m/s 744 mmHg 80%
    05:00 +14°C° 0 mm 2 m/s 745 mmHg 79%
    06:00 +14°C° 0 mm 2 m/s 745 mmHg 78%
    07:00 +13°C° 0 mm 2 m/s 745 mmHg 77%
    08:00 +15°C° 0 mm 2 m/s 746 mmHg 74%
    09:00 +16°C° 0 mm 1 m/s 746 mmHg 70%
    10:00 +18°C° 0 mm 1 m/s 747 mmHg 67%
    11:00 +18°C° 0 mm 1 m/s 747 mmHg 67%
    12:00 +19°C° 0 mm 1 m/s 747 mmHg 68%
    13:00 +18°C° 0 mm 2 m/s 747 mmHg 69%
    14:00 +17°C° 0 mm 2 m/s 747 mmHg 73%
    15:00 +17°C° 0 mm 2 m/s 747 mmHg 78%
    16:00 +16°C° 0 mm 2 m/s 747 mmHg 83%
    17:00 +15°C° 0 mm 2 m/s 747 mmHg 85%
    18:00 +14°C° 0 mm 2 m/s 747 mmHg 86%
    19:00 +14°C° 0 mm 2 m/s 747 mmHg 88%
    20:00 +13°C° 0 mm 2 m/s 747 mmHg 87%
    21:00 +13°C° 0 mm 2 m/s 747 mmHg 86%
    22:00 +13°C° 0 mm 2 m/s 747 mmHg 86%
    23:00 +13°C° 0 mm 2 m/s 747 mmHg 87%
    Voir plus